TimeCST,TemperatureF,Dew PointF,Humidity,Sea Level PressureIn,VisibilityMPH,Wind Direction,Wind SpeedMPH,Gust SpeedMPH,PrecipitationIn,Events,Conditions,WindDirDegrees,DateUTC
12:00 AM,-46,-50,65,30.16,15,Calm,Calm,,,Snow,Snow,,2013-02-05 06:00:00
12:00 AM,-45.4,-50.8,74,30.16,15.0,Calm,Calm,-,N/A,,Clear,0,2013-02-05 06:00:00
1:00 AM,-41.8,-47.2,74,30.18,15.0,Calm,Calm,-,N/A,,Clear,0,2013-02-05 07:00:00
2:00 AM,-43.6,-49.0,74,30.20,15.0,Calm,Calm,-,N/A,,Clear,0,2013-02-05 08:00:00
3:00 AM,-41.8,-45.4,82,30.22,15.0,Calm,Calm,-,N/A,,Clear,0,2013-02-05 09:00:00
4:00 AM,-38.2,-45.4,67,30.22,15.0,Calm,Calm,-,N/A,,Clear,0,2013-02-05 10:00:00
5:00 AM,-32.8,-41.8,62,30.23,15.0,ENE,2.3,-,N/A,,Clear,70,2013-02-05 11:00:00
6:00 AM,-33,-41,44,30.23,15,ENE,2.3,,,Snow,Snow,70,2013-02-05 12:00:00
6:00 AM,-32.8,-41.8,62,30.23,15.0,ENE,2.3,-,N/A,,Clear,70,2013-02-05 12:00:00
7:00 AM,-34.6,-41.8,68,30.23,15.0,Calm,Calm,-,N/A,,Clear,0,2013-02-05 13:00:00
8:00 AM,-32.8,-41.8,62,30.23,15.0,Calm,Calm,-,N/A,,Partly Cloudy,0,2013-02-05 14:00:00
9:00 AM,-34.6,-41.8,68,30.23,15.0,Calm,Calm,-,N/A,,Partly Cloudy,0,2013-02-05 15:00:00
10:00 AM,-32.8,-41.8,62,30.22,15.0,Calm,Calm,-,N/A,,Partly Cloudy,0,2013-02-05 16:00:00
11:00 AM,-34.6,-41.8,68,30.23,15.0,Calm,Calm,-,N/A,,Partly Cloudy,0,2013-02-05 17:00:00
12:00 PM,-31,-39,46,30.20,37,Calm,Calm,,,Snow,Snow,,2013-02-05 18:00:00
12:00 PM,-31.0,-40.0,62,30.20,40.0,Calm,Calm,-,N/A,,Overcast,0,2013-02-05 18:00:00
1:00 PM,-31.0,-40.0,62,30.20,40.0,South,2.3,-,N/A,,Overcast,180,2013-02-05 19:00:00
2:00 PM,-27.4,-36.4,62,30.18,40.0,ENE,2.3,-,N/A,,Overcast,70,2013-02-05 20:00:00
3:00 PM,-29.2,-38.2,62,30.17,15.0,Calm,Calm,-,N/A,,Scattered Clouds,0,2013-02-05 21:00:00
4:00 PM,-31.0,-40.0,62,30.16,15.0,Calm,Calm,-,N/A,,Clear,0,2013-02-05 22:00:00
5:00 PM,-31.0,-40.0,62,30.14,15.0,Calm,Calm,-,N/A,,Clear,0,2013-02-05 23:00:00
6:00 PM,-33,-42,42,30.12,15,Calm,Calm,,,Snow,Snow,,2013-02-06 00:00:00
6:00 PM,-32.8,-41.8,62,30.12,15.0,Calm,Calm,-,N/A,,Clear,0,2013-02-06 00:00:00
7:00 PM,-32.8,-41.8,62,30.10,15.0,West,4.6,-,N/A,,Clear,270,2013-02-06 01:00:00
8:00 PM,-34.6,-41.8,68,30.08,15.0,West,3.5,-,N/A,,Clear,270,2013-02-06 02:00:00
9:00 PM,-34.6,-43.6,61,30.04,15.0,NW,2.3,-,N/A,,Clear,310,2013-02-06 03:00:00